Date,Time,Wetness (Wet Dry or Ice),Wind Speed (m/s),Temperature (C),Humidity (%),Pressure (mb),Radiation (W/m^2)
2020-08-17,23:50:00,DRY,2.10,19.70,6.0,778.00,1.6
2020-08-17,23:55:00,DRY,1.00,19.50,6.0,778.00,1.7
2020-08-18,00:00:00,DRY,0.70,19.57,6.0,778.00,1.5
2020-08-18,00:05:00,DRY,1.45,19.35,6.0,778.00,1.3
2020-08-18,00:10:00,DRY,1.87,19.43,6.0,778.00,0.7
2020-08-18,00:15:00,DRY,0.90,19.30,6.0,778.00,1.2
2020-08-18,00:20:00,DRY,0.63,18.93,6.7,778.00,0.9
2020-08-18,00:25:00,DRY,1.70,19.00,6.5,778.00,1.2
2020-08-18,00:30:00,DRY,1.03,19.20,6.0,778.33,0.7
2020-08-18,00:35:00,DRY,0.80,19.00,6.0,778.00,1.7
2020-08-18,00:40:00,DRY,2.87,19.00,6.7,778.00,1.5
2020-08-18,00:45:00,DRY,2.75,19.45,6.0,778.00,1.7
2020-08-18,00:50:00,DRY,3.27,19.33,6.0,778.00,1.1
2020-08-18,00:55:00,DRY,2.55,19.00,6.5,778.00,0.7
2020-08-18,01:00:00,DRY,3.83,18.97,6.3,778.00,1.4
2020-08-18,01:05:00,DRY,2.55,19.10,7.0,778.00,1.2
2020-08-18,01:10:00,DRY,3.93,19.13,6.0,778.00,1.5
2020-08-18,01:15:00,DRY,4.50,19.15,6.0,778.00,1.4
2020-08-18,01:20:00,DRY,3.63,19.07,6.0,778.00,1.6
2020-08-18,01:25:00,DRY,3.90,18.90,6.0,778.00,1.1
2020-08-18,01:30:00,DRY,3.67,18.87,6.0,778.00,1.0
2020-08-18,01:35:00,DRY,3.80,18.80,6.0,778.00,0.9
2020-08-18,01:40:00,DRY,3.07,18.80,6.0,778.00,1.4
2020-08-18,01:45:00,DRY,4.05,18.70,6.0,778.00,1.1
2020-08-18,01:50:00,DRY,3.70,18.80,6.0,778.00,1.3
2020-08-18,01:55:00,DRY,4.10,18.85,6.0,778.00,1.2
2020-08-18,02:00:00,DRY,3.63,18.80,6.0,778.00,2.0
2020-08-18,02:05:00,DRY,4.30,18.90,6.0,777.00,1.8
2020-08-18,02:10:00,DRY,4.00,18.77,6.0,777.00,1.5
2020-08-18,02:15:00,DRY,4.50,18.80,6.0,777.00,1.6
2020-08-18,02:20:00,DRY,3.80,18.70,6.0,777.00,1.3
2020-08-18,02:25:00,DRY,4.35,18.75,6.0,777.00,1.4
2020-08-18,02:30:00,DRY,4.67,18.70,6.0,777.00,1.2
2020-08-18,02:35:00,DRY,4.05,18.80,6.0,777.00,1.6
2020-08-18,02:40:00,DRY,3.77,18.73,6.0,777.00,1.3
2020-08-18,02:45:00,DRY,3.50,18.70,6.0,777.00,1.6
2020-08-18,02:50:00,DRY,3.93,18.73,6.0,777.00,1.0
2020-08-18,02:55:00,DRY,4.10,18.70,6.0,777.00,1.2
2020-08-18,03:00:00,DRY,4.63,18.67,6.0,777.00,1.0
2020-08-18,03:05:00,DRY,3.65,18.60,6.0,777.00,1.0
2020-08-18,03:10:00,DRY,4.23,18.53,5.3,777.00,1.5
2020-08-18,03:15:00,DRY,5.30,18.50,5.0,777.00,1.4
2020-08-18,03:20:00,DRY,4.10,18.53,5.0,777.00,1.1
2020-08-18,03:25:00,DRY,4.20,18.40,5.0,777.00,1.4
2020-08-18,03:30:00,DRY,5.40,18.43,4.7,777.00,1.3
2020-08-18,03:35:00,DRY,4.35,18.50,5.0,777.00,1.1
2020-08-18,03:40:00,DRY,5.07,18.43,4.3,777.00,1.3
2020-08-18,03:45:00,DRY,4.50,18.50,5.0,777.00,1.1
2020-08-18,03:50:00,DRY,4.30,18.43,4.3,777.00,1.1
2020-08-18,03:55:00,DRY,5.35,18.55,5.0,777.00,1.4
2020-08-18,04:00:00,DRY,4.27,18.57,5.0,777.00,0.9
2020-08-18,04:05:00,DRY,4.40,18.60,5.0,777.00,2.0
2020-08-18,04:10:00,DRY,4.57,18.70,5.0,777.00,2.3
2020-08-18,04:15:00,DRY,4.10,18.60,6.0,777.00,1.5
2020-08-18,04:20:00,DRY,3.97,18.63,6.0,777.00,1.4
2020-08-18,04:25:00,DRY,4.50,18.70,6.0,777.00,1.2
2020-08-18,04:30:00,DRY,3.83,18.67,6.0,777.00,1.5
2020-08-18,04:35:00,DRY,3.95,18.60,6.0,777.00,1.0
2020-08-18,04:40:00,DRY,4.10,18.63,6.0,777.00,1.2
2020-08-18,04:45:00,DRY,4.90,18.70,6.0,777.00,1.5
2020-08-18,04:50:00,DRY,4.10,18.67,6.3,777.00,1.5
2020-08-18,04:55:00,DRY,4.20,18.55,6.5,777.00,1.1
2020-08-18,05:00:00,DRY,4.13,18.60,7.0,777.00,1.4
2020-08-18,05:05:00,DRY,3.85,18.70,6.0,777.00,2.3
2020-08-18,05:10:00,DRY,3.63,18.50,6.0,777.00,1.4
2020-08-18,05:15:00,DRY,3.35,18.55,6.5,777.00,1.0
2020-08-18,05:20:00,DRY,3.50,18.60,6.3,777.00,0.8
2020-08-18,05:25:00,DRY,4.75,18.45,6.5,777.00,1.3
2020-08-18,05:30:00,DRY,4.20,18.57,7.0,777.00,1.2
2020-08-18,05:35:00,DRY,3.95,18.65,7.0,777.00,1.3
2020-08-18,05:40:00,DRY,4.43,18.60,6.0,777.00,1.2
2020-08-18,05:45:00,DRY,4.70,18.50,6.0,777.00,1.6
2020-08-18,05:50:00,DRY,4.23,18.57,6.3,777.00,1.5
2020-08-18,05:55:00,DRY,4.50,18.60,6.0,777.00,1.2
2020-08-18,06:00:00,DRY,4.30,18.67,6.0,777.00,1.5
2020-08-18,06:05:00,DRY,3.95,18.55,6.0,777.00,2.0
2020-08-18,06:10:00,DRY,4.27,18.50,6.0,777.00,2.0
2020-08-18,06:15:00,DRY,4.10,18.55,7.0,777.00,1.5
2020-08-18,06:20:00,DRY,4.33,18.57,7.0,777.00,1.5
2020-08-18,06:25:00,DRY,4.10,18.55,6.5,777.00,1.8
2020-08-18,06:30:00,DRY,3.87,18.53,7.0,777.00,2.6
2020-08-18,06:35:00,DRY,4.80,18.60,7.0,777.00,3.8
2020-08-18,06:40:00,DRY,4.40,18.73,7.0,777.00,6.2
2020-08-18,06:45:00,DRY,5.00,18.80,7.0,777.00,10.6
2020-08-18,06:50:00,DRY,4.10,18.70,7.0,777.00,20.6
2020-08-18,06:55:00,DRY,4.15,18.80,7.0,777.00,36.3
2020-08-18,07:00:00,DRY,3.73,18.83,7.0,777.00,56.5
2020-08-18,07:05:00,DRY,3.65,19.00,7.0,777.00,82.1
2020-08-18,07:10:00,DRY,3.83,19.03,7.0,777.00,106.2
2020-08-18,07:15:00,DRY,3.55,19.15,7.0,777.00,125.5
2020-08-18,07:20:00,DRY,4.13,19.20,7.0,777.00,147.0
2020-08-18,07:25:00,DRY,4.45,19.25,7.0,777.00,167.9
2020-08-18,07:30:00,DRY,4.87,19.37,7.0,777.00,189.4
2020-08-18,07:35:00,DRY,4.80,19.40,7.0,777.00,210.9
2020-08-18,07:40:00,DRY,4.90,19.50,7.0,777.00,234.1
2020-08-18,07:45:00,DRY,5.30,19.55,7.0,777.00,256.1
2020-08-18,07:50:00,DRY,4.80,19.63,7.0,777.00,279.7
2020-08-18,07:55:00,DRY,5.00,19.70,7.0,777.00,301.8
2020-08-18,08:00:00,DRY,3.40,19.80,7.0,777.00,323.8
2020-08-18,08:05:00,DRY,3.95,19.90,7.0,777.00,346.4
2020-08-18,08:10:00,DRY,4.03,20.00,7.0,777.00,369.1
2020-08-18,08:15:00,DRY,4.05,20.15,7.0,777.00,391.3
2020-08-18,08:20:00,DRY,4.33,20.23,7.0,777.00,414.2
2020-08-18,08:25:00,DRY,4.90,20.35,7.0,777.00,436.9
2020-08-18,08:30:00,DRY,4.47,20.33,7.0,777.00,459.5
2020-08-18,08:35:00,DRY,4.50,20.45,7.0,777.00,481.9
2020-08-18,08:40:00,DRY,3.70,20.53,7.0,777.00,504.2
2020-08-18,08:45:00,DRY,4.45,20.65,7.0,777.00,526.1
2020-08-18,08:50:00,DRY,4.70,20.67,7.0,777.00,548.1
2020-08-18,08:55:00,DRY,3.55,20.85,7.0,777.00,568.2
2020-08-18,09:00:00,DRY,4.17,20.90,7.0,777.00,590.9
2020-08-18,09:05:00,DRY,4.10,21.00,7.0,777.00,612.2
2020-08-18,09:10:00,DRY,4.60,21.13,7.0,777.00,633.0
2020-08-18,09:15:00,DRY,3.65,21.00,7.0,777.00,654.1
2020-08-18,09:20:00,DRY,4.67,21.03,7.0,777.00,674.1
2020-08-18,09:25:00,DRY,4.00,21.15,7.0,777.00,694.0
2020-08-18,09:30:00,DRY,4.33,21.27,6.7,777.00,713.8
2020-08-18,09:35:00,DRY,3.85,21.30,7.0,777.00,733.0
2020-08-18,09:40:00,DRY,4.27,21.33,7.0,777.00,751.4
2020-08-18,09:45:00,DRY,4.40,21.70,7.5,777.00,770.5
2020-08-18,09:50:00,DRY,4.27,21.53,7.0,777.00,788.9
2020-08-18,09:55:00,DRY,3.80,21.50,7.0,777.00,806.9
2020-08-18,10:00:00,DRY,5.10,21.60,7.0,777.00,823.7
2020-08-18,10:05:00,DRY,5.20,21.55,7.5,777.00,840.9
2020-08-18,10:10:00,DRY,4.13,21.73,7.3,777.33,857.7
2020-08-18,10:15:00,DRY,3.80,21.90,8.0,777.00,875.5
2020-08-18,10:20:00,DRY,3.90,21.93,8.0,777.00,890.6
2020-08-18,10:25:00,DRY,4.10,21.70,8.5,777.00,904.7
2020-08-18,10:30:00,DRY,4.23,21.97,7.7,777.00,921.4
2020-08-18,10:35:00,DRY,4.40,21.80,10.0,778.00,937.1
2020-08-18,10:40:00,DRY,3.53,21.70,10.0,777.33,950.7
2020-08-18,10:45:00,DRY,5.25,21.85,11.0,777.50,964.5
2020-08-18,10:50:00,DRY,4.50,21.67,10.0,777.33,978.1
2020-08-18,10:55:00,DRY,4.50,21.65,11.0,778.00,991.4
2020-08-18,11:00:00,DRY,3.73,22.03,9.0,777.67,1004.5
2020-08-18,11:05:00,DRY,3.85,22.20,11.0,778.00,1015.0
2020-08-18,11:10:00,DRY,4.40,22.23,11.3,778.00,1026.7
2020-08-18,11:15:00,DRY,3.20,22.50,9.5,778.00,1039.3
2020-08-18,11:20:00,DRY,5.03,22.13,10.7,778.00,1049.9
2020-08-18,11:25:00,DRY,4.05,22.35,11.0,778.00,1060.8
2020-08-18,11:30:00,DRY,4.10,22.33,10.7,778.00,1070.7
2020-08-18,11:35:00,DRY,4.55,22.40,13.0,778.00,1080.0
2020-08-18,11:40:00,DRY,3.60,22.30,12.3,778.00,1088.5
2020-08-18,11:45:00,DRY,3.45,22.05,13.5,778.00,1097.0
2020-08-18,11:50:00,DRY,3.03,22.27,12.0,778.00,1104.6
2020-08-18,11:55:00,DRY,3.35,22.35,13.5,778.00,1112.9
2020-08-18,12:00:00,DRY,3.77,22.00,13.0,778.00,1118.8
2020-08-18,12:05:00,DRY,3.55,22.50,13.5,778.00,1124.6
2020-08-18,12:10:00,DRY,3.47,22.17,15.7,778.00,1129.2
2020-08-18,12:15:00,DRY,3.75,22.95,13.0,778.00,1136.7
2020-08-18,12:20:00,DRY,2.73,22.47,10.3,778.00,1141.3
2020-08-18,12:25:00,DRY,4.15,22.40,10.5,778.00,1146.7
2020-08-18,12:30:00,DRY,3.73,22.40,10.3,777.67,1150.6
2020-08-18,12:35:00,DRY,4.40,22.80,12.5,778.00,1154.0
2020-08-18,12:40:00,DRY,4.40,22.87,12.3,778.00,1157.3
2020-08-18,12:45:00,DRY,4.35,22.60,16.0,778.00,1160.5
2020-08-18,12:50:00,DRY,4.07,22.40,13.0,778.00,1162.6
2020-08-18,12:55:00,DRY,2.20,21.95,11.0,778.00,1164.5
2020-08-18,13:00:00,DRY,3.23,22.23,12.7,778.00,1166.0
2020-08-18,13:05:00,DRY,3.40,22.45,13.0,778.00,1168.3
2020-08-18,13:10:00,DRY,4.40,22.50,15.0,777.67,1166.7
2020-08-18,13:15:00,DRY,2.65,22.45,14.0,778.00,1167.8
2020-08-18,13:20:00,DRY,3.67,22.80,15.3,778.00,1167.7
2020-08-18,13:25:00,DRY,4.45,22.40,17.5,778.00,1166.2
2020-08-18,13:30:00,DRY,4.50,22.70,14.0,778.00,1166.8
2020-08-18,13:35:00,DRY,4.00,21.90,19.0,777.00,1162.0
2020-08-18,13:40:00,DRY,2.77,22.10,18.0,777.33,1161.0
2020-08-18,13:45:00,DRY,3.75,22.10,21.0,777.00,1159.2
2020-08-18,13:50:00,DRY,4.20,22.73,15.7,777.00,1155.4
2020-08-18,13:55:00,DRY,3.45,22.70,17.5,777.00,1151.6
2020-08-18,14:00:00,DRY,3.47,22.77,17.3,777.00,1148.4
2020-08-18,14:05:00,DRY,2.40,22.35,17.5,777.00,1142.7
2020-08-18,14:10:00,DRY,4.00,22.53,18.7,777.00,1138.4
2020-08-18,14:15:00,DRY,2.80,22.80,17.0,777.00,1132.2
2020-08-18,14:20:00,DRY,3.37,22.83,17.7,777.00,1126.7
2020-08-18,14:25:00,DRY,3.45,22.90,16.0,777.00,1121.3
2020-08-18,14:30:00,DRY,4.07,22.67,16.7,777.00,1111.8
2020-08-18,14:35:00,DRY,3.55,22.70,18.0,777.00,1105.7
2020-08-18,14:40:00,DRY,4.00,22.40,18.0,777.00,1098.0
2020-08-18,14:45:00,DRY,2.55,22.25,17.0,777.00,1089.5
2020-08-18,14:50:00,DRY,3.50,22.23,17.7,777.00,1079.6
2020-08-18,14:55:00,DRY,4.45,22.30,17.0,777.00,1070.7
2020-08-18,15:00:00,DRY,3.73,22.67,16.0,777.00,1060.1
2020-08-18,15:05:00,DRY,3.30,22.45,14.0,777.00,1050.8
2020-08-18,15:10:00,DRY,3.00,22.50,14.0,777.00,1037.8
2020-08-18,15:15:00,DRY,4.00,22.50,14.5,777.00,1025.6
2020-08-18,15:20:00,DRY,3.07,22.27,13.3,777.00,1013.4
2020-08-18,15:25:00,DRY,3.25,22.05,12.5,777.00,1000.6
2020-08-18,15:30:00,DRY,2.83,22.33,14.7,777.00,987.4
2020-08-18,15:35:00,DRY,4.25,22.35,16.0,777.00,973.7
2020-08-18,15:40:00,DRY,2.53,22.00,15.3,777.00,959.9
2020-08-18,15:45:00,DRY,3.35,21.85,15.0,777.00,944.8
2020-08-18,15:50:00,DRY,4.27,22.10,15.3,777.00,930.2
2020-08-18,15:55:00,DRY,4.00,22.15,14.5,777.00,915.4
2020-08-18,16:00:00,DRY,3.57,21.90,14.0,777.00,900.5
2020-08-18,16:05:00,DRY,2.65,21.70,12.5,777.00,883.3
2020-08-18,16:10:00,DRY,3.80,21.83,12.0,777.00,868.0
2020-08-18,16:15:00,DRY,3.35,22.15,11.5,777.00,851.1
2020-08-18,16:20:00,DRY,3.17,22.10,12.0,777.00,834.3
2020-08-18,16:25:00,DRY,4.25,21.90,12.0,777.00,816.9
2020-08-18,16:30:00,DRY,3.10,21.73,11.3,777.00,800.5
2020-08-18,16:35:00,DRY,4.15,22.15,9.5,777.00,780.0
2020-08-18,16:40:00,DRY,3.23,22.03,11.7,777.00,761.2
2020-08-18,16:45:00,DRY,3.75,22.00,10.5,777.00,743.2
2020-08-18,16:50:00,DRY,3.17,21.57,9.7,777.00,723.8
2020-08-18,16:55:00,DRY,3.75,21.70,10.5,777.00,704.5
2020-08-18,17:00:00,DRY,3.63,21.63,10.7,777.00,684.8
2020-08-18,17:05:00,DRY,2.85,21.70,11.5,777.00,666.1
2020-08-18,17:10:00,DRY,3.77,21.43,12.0,777.00,645.1
2020-08-18,17:15:00,DRY,3.15,21.20,11.0,777.00,623.5
2020-08-18,17:20:00,DRY,3.10,21.40,12.0,777.00,602.9
2020-08-18,17:25:00,DRY,3.85,21.70,12.5,777.00,581.3
2020-08-18,17:30:00,DRY,2.90,21.20,11.3,777.00,558.4
2020-08-18,17:35:00,DRY,3.35,21.20,11.0,777.00,536.6
2020-08-18,17:40:00,DRY,3.27,21.27,10.0,777.00,516.0
2020-08-18,17:45:00,DRY,3.15,21.35,11.5,777.00,493.4
2020-08-18,17:50:00,DRY,2.85,20.95,9.0,777.00,466.2
2020-08-18,17:55:00,DRY,3.20,20.85,10.0,777.00,448.5
2020-08-18,18:00:00,DRY,2.77,20.67,8.7,777.00,424.6
2020-08-18,18:05:00,DRY,3.25,20.65,7.5,777.00,403.4
2020-08-18,18:10:00,DRY,3.17,20.67,7.7,777.00,379.9
2020-08-18,18:15:00,DRY,3.60,20.85,8.5,777.00,356.6
2020-08-18,18:20:00,DRY,3.53,20.77,8.7,777.00,333.6
2020-08-18,18:25:00,DRY,2.80,20.55,8.0,777.00,311.4
2020-08-18,18:30:00,DRY,3.43,20.57,7.7,777.00,288.2
2020-08-18,18:35:00,DRY,3.25,20.45,8.5,777.00,265.5
2020-08-18,18:40:00,DRY,2.80,20.37,8.0,777.00,243.3
2020-08-18,18:45:00,DRY,2.85,20.25,8.0,777.00,221.8
2020-08-18,18:50:00,DRY,3.60,20.23,7.7,777.00,72.9
2020-08-18,18:55:00,DRY,3.80,20.15,8.0,777.00,42.6
2020-08-18,19:00:00,DRY,3.13,19.90,8.0,777.00,37.2
2020-08-18,19:05:00,DRY,3.55,19.80,8.0,777.00,34.0
2020-08-18,19:10:00,DRY,3.57,19.73,7.3,777.00,32.0
2020-08-18,19:15:00,DRY,3.90,19.60,7.5,777.00,28.8
2020-08-18,19:20:00,DRY,3.37,19.50,7.3,777.00,25.6
2020-08-18,19:25:00,DRY,3.40,19.50,7.5,777.00,22.8
2020-08-18,19:30:00,DRY,3.43,19.43,7.0,777.00,19.8
2020-08-18,19:35:00,DRY,3.50,19.20,7.0,777.00,16.4
2020-08-18,19:40:00,DRY,4.10,19.20,7.0,777.00,12.3
2020-08-18,19:45:00,DRY,3.45,19.20,7.0,777.00,8.7
2020-08-18,19:50:00,DRY,3.57,19.10,7.0,777.00,6.1
2020-08-18,19:55:00,DRY,4.45,18.90,7.0,777.00,3.8
2020-08-18,20:00:00,DRY,4.27,18.90,7.0,777.00,2.3
2020-08-18,20:05:00,DRY,3.25,18.85,7.0,777.00,1.3
2020-08-18,20:10:00,DRY,3.83,18.87,7.0,777.00,1.3
2020-08-18,20:15:00,DRY,3.60,18.85,7.0,777.00,1.6
2020-08-18,20:20:00,DRY,4.23,18.90,7.0,777.00,1.4
2020-08-18,20:25:00,DRY,4.50,18.85,7.0,777.00,1.2
2020-08-18,20:30:00,DRY,4.97,18.83,7.0,777.00,1.2
2020-08-18,20:35:00,DRY,4.15,18.80,7.0,777.00,1.2
2020-08-18,20:40:00,DRY,4.50,18.63,7.0,777.00,1.1
2020-08-18,20:45:00,DRY,5.05,18.50,7.0,777.00,1.3
2020-08-18,20:50:00,DRY,5.17,18.63,7.0,777.00,1.3
2020-08-18,20:55:00,DRY,5.00,18.70,7.0,777.00,1.0
2020-08-18,21:00:00,DRY,4.57,18.63,7.0,777.00,1.2
2020-08-18,21:05:00,DRY,4.30,18.55,7.0,777.00,1.1
2020-08-18,21:10:00,DRY,4.57,18.57,7.0,777.00,1.1
2020-08-18,21:15:00,DRY,4.05,18.60,7.0,777.00,1.1
2020-08-18,21:20:00,DRY,4.87,18.60,7.3,777.00,1.3
2020-08-18,21:25:00,DRY,4.90,18.70,8.0,777.00,1.2
2020-08-18,21:30:00,DRY,4.53,18.63,8.0,777.33,1.1
2020-08-18,21:35:00,DRY,4.10,18.55,8.0,777.50,1.1
2020-08-18,21:40:00,DRY,4.80,18.43,7.3,777.67,1.0
2020-08-18,21:45:00,DRY,4.40,18.40,7.0,778.00,0.9
2020-08-18,21:50:00,DRY,4.37,18.40,7.3,778.00,1.1
2020-08-18,21:55:00,DRY,4.75,18.35,7.0,778.00,0.9
2020-08-18,22:00:00,DRY,4.23,18.33,7.0,778.00,1.2
2020-08-18,22:05:00,DRY,5.15,18.40,7.0,778.00,1.1
2020-08-18,22:10:00,DRY,4.63,18.33,7.0,778.00,1.1
2020-08-18,22:15:00,DRY,4.80,18.30,7.0,778.00,1.2
2020-08-18,22:20:00,DRY,4.67,18.30,8.0,778.00,1.2
2020-08-18,22:25:00,DRY,4.40,18.30,8.0,778.00,0.9
2020-08-18,22:30:00,DRY,4.70,18.37,8.0,778.00,1.1
2020-08-18,22:35:00,DRY,4.90,18.30,8.0,778.00,1.0
2020-08-18,22:40:00,DRY,5.20,18.33,8.0,778.00,1.2
2020-08-18,22:45:00,DRY,4.25,18.30,8.0,778.00,1.4
2020-08-18,22:50:00,DRY,4.73,18.17,7.3,778.00,1.4
2020-08-18,22:55:00,DRY,5.00,18.15,7.0,778.00,1.6
2020-08-18,23:00:00,DRY,4.33,18.10,7.0,778.00,1.4
2020-08-18,23:05:00,DRY,4.75,18.15,7.0,778.00,1.1
2020-08-18,23:10:00,DRY,4.57,18.10,8.0,778.00,1.1
2020-08-18,23:15:00,DRY,3.85,18.00,8.0,777.50,1.1
2020-08-18,23:20:00,DRY,4.00,18.00,8.0,777.33,1.2
2020-08-18,23:25:00,DRY,4.20,18.00,8.0,777.00,0.9
2020-08-18,23:30:00,DRY,4.13,18.03,7.3,777.00,1.2
2020-08-18,23:35:00,DRY,3.65,18.00,7.5,777.00,1.0
2020-08-18,23:40:00,DRY,3.67,17.97,7.7,777.00,1.0
2020-08-18,23:45:00,DRY,3.75,17.95,7.0,777.00,1.1
2020-08-18,23:50:00,DRY,4.53,17.80,7.0,777.00,1.3
2020-08-18,23:55:00,DRY,4.50,17.90,7.0,777.00,1.1
2020-08-19,00:00:00,DRY,4.97,17.90,7.0,777.00,1.3
2020-08-19,00:05:00,DRY,4.95,17.90,7.0,777.00,1.0
2020-08-19,00:10:00,DRY,4.70,17.83,7.0,777.00,1.1
2020-08-19,00:15:00,DRY,4.80,17.90,7.5,777.00,0.9
2020-08-19,00:20:00,DRY,3.77,17.87,7.0,777.00,1.3
2020-08-19,00:25:00,DRY,4.20,17.85,7.0,777.00,1.3
2020-08-19,00:30:00,DRY,4.33,17.80,8.0,777.00,1.8
2020-08-19,00:35:00,DRY,3.90,17.80,7.5,777.00,1.4
2020-08-19,00:40:00,DRY,4.47,17.67,7.0,777.00,1.1
2020-08-19,00:45:00,DRY,3.95,17.75,7.0,777.00,1.1
2020-08-19,00:50:00,DRY,4.27,17.87,7.0,777.00,1.2
2020-08-19,00:55:00,DRY,3.25,17.80,7.0,777.00,1.2
2020-08-19,01:00:00,DRY,4.60,17.73,7.0,777.00,1.0
2020-08-19,01:05:00,DRY,4.35,17.80,7.0,777.00,1.2
2020-08-19,01:10:00,DRY,4.20,17.83,7.0,777.00,1.3
2020-08-19,01:15:00,DRY,5.05,17.85,7.0,777.00,1.0
2020-08-19,01:20:00,DRY,4.93,17.77,7.3,777.00,1.2
2020-08-19,01:25:00,DRY,5.35,17.60,7.0,777.00,0.8
2020-08-19,01:30:00,DRY,4.67,17.57,7.0,776.33,1.0
2020-08-19,01:35:00,DRY,5.05,17.45,7.0,776.00,1.0
2020-08-19,01:40:00,DRY,5.40,17.40,7.0,776.00,1.2
2020-08-19,01:45:00,DRY,5.55,17.60,7.0,776.00,1.1
2020-08-19,01:50:00,DRY,5.60,17.57,7.0,776.00,1.1
2020-08-19,01:55:00,DRY,5.00,17.65,7.0,776.00,1.4
2020-08-19,02:00:00,DRY,5.67,17.57,7.0,776.00,1.4
2020-08-19,02:05:00,DRY,5.45,17.50,7.0,776.00,1.1
2020-08-19,02:10:00,DRY,4.53,17.57,7.0,776.00,1.3
2020-08-19,02:15:00,DRY,5.15,17.65,7.0,776.00,1.2
2020-08-19,02:20:00,DRY,4.27,17.60,7.0,776.00,1.2
2020-08-19,02:25:00,DRY,4.75,17.50,7.0,776.00,0.9
2020-08-19,02:30:00,DRY,4.97,17.40,7.0,776.00,1.5
2020-08-19,02:35:00,DRY,4.80,17.40,7.0,776.00,1.8
2020-08-19,02:40:00,DRY,4.67,17.40,7.0,776.00,1.3
2020-08-19,02:45:00,DRY,5.20,17.50,7.0,776.00,1.1
2020-08-19,02:50:00,DRY,5.47,17.53,7.0,776.00,1.2
2020-08-19,02:55:00,DRY,5.35,17.45,7.0,776.00,1.1
2020-08-19,03:00:00,DRY,6.00,17.50,7.0,776.00,1.4
2020-08-19,03:05:00,DRY,5.30,17.45,7.0,776.00,1.2
2020-08-19,03:10:00,DRY,5.07,17.47,7.0,775.67,1.0
2020-08-19,03:15:00,DRY,4.80,17.50,7.0,775.50,1.2
2020-08-19,03:20:00,DRY,4.60,17.47,6.0,775.67,1.3
2020-08-19,03:25:00,DRY,4.75,17.50,6.0,775.00,1.4
2020-08-19,03:30:00,DRY,4.47,17.50,6.0,775.00,1.2
2020-08-19,03:35:00,DRY,4.80,17.45,6.0,775.00,1.1
2020-08-19,03:40:00,DRY,4.70,17.50,6.3,775.00,1.1
2020-08-19,03:45:00,DRY,4.65,17.40,6.0,775.00,0.6
2020-08-19,03:50:00,DRY,3.53,17.37,6.0,775.00,1.0
2020-08-19,03:55:00,DRY,4.90,17.45,6.0,775.00,1.2
2020-08-19,04:00:00,DRY,4.87,17.37,6.0,775.00,1.4
2020-08-19,04:05:00,DRY,4.50,17.40,6.5,775.00,1.4
2020-08-19,04:10:00,DRY,4.87,17.40,7.3,775.00,1.6
2020-08-19,04:15:00,DRY,4.40,17.45,7.5,775.00,1.5
2020-08-19,04:20:00,DRY,3.70,17.43,7.0,775.00,1.1
2020-08-19,04:25:00,DRY,3.70,17.10,10.5,775.00,0.8
2020-08-19,04:30:00,DRY,4.93,17.23,7.7,775.00,0.5
2020-08-19,04:35:00,DRY,4.35,17.30,10.0,775.00,1.1
2020-08-19,04:40:00,DRY,4.30,17.23,6.7,775.00,1.6
2020-08-19,04:45:00,DRY,3.50,17.20,7.0,775.00,1.1
2020-08-19,04:50:00,DRY,4.53,17.20,7.3,775.00,1.4
2020-08-19,04:55:00,DRY,4.80,17.35,13.5,775.00,1.0
2020-08-19,05:00:00,DRY,3.50,17.33,7.7,775.00,1.4
2020-08-19,05:05:00,DRY,4.25,17.35,6.0,775.00,2.0
2020-08-19,05:10:00,DRY,4.13,17.30,9.7,775.00,0.8
2020-08-19,05:15:00,DRY,4.05,17.30,16.5,775.00,1.1
2020-08-19,05:20:00,DRY,4.13,17.37,14.0,775.00,1.1
2020-08-19,05:25:00,DRY,4.45,17.30,15.5,775.00,1.4
2020-08-19,05:30:00,DRY,3.90,17.27,15.0,775.00,1.2
2020-08-19,05:35:00,DRY,3.90,17.05,30.0,775.00,1.1
2020-08-19,05:40:00,DRY,3.80,16.93,39.3,775.00,1.3
2020-08-19,05:45:00,DRY,3.80,16.85,45.5,775.00,1.1
2020-08-19,05:50:00,DRY,3.40,16.87,47.0,775.00,1.3
2020-08-19,05:55:00,DRY,3.30,16.75,47.5,775.00,1.2
2020-08-19,06:00:00,DRY,4.03,16.73,46.0,775.00,1.2
2020-08-19,06:05:00,DRY,3.90,16.80,48.0,775.00,1.1
2020-08-19,06:10:00,DRY,3.47,16.50,46.3,775.00,1.5
2020-08-19,06:15:00,DRY,3.90,16.60,47.0,775.00,1.4
2020-08-19,06:20:00,DRY,3.67,16.60,46.7,775.00,1.4
2020-08-19,06:25:00,DRY,3.00,16.45,46.0,775.00,2.0
2020-08-19,06:30:00,DRY,3.13,16.40,46.3,775.00,2.1
2020-08-19,06:35:00,DRY,2.60,16.35,47.0,775.00,3.8
2020-08-19,06:40:00,DRY,3.13,16.37,48.3,775.00,5.4
2020-08-19,06:45:00,DRY,3.95,16.25,48.5,775.00,10.8
2020-08-19,06:50:00,DRY,3.57,16.47,47.3,775.00,22.0
2020-08-19,06:55:00,DRY,3.65,16.55,47.0,775.00,37.3
2020-08-19,07:00:00,DRY,3.53,16.50,48.0,775.00,57.8
2020-08-19,07:05:00,DRY,3.65,16.70,48.5,775.00,80.1
2020-08-19,07:10:00,DRY,3.70,16.83,48.0,775.00,104.1
2020-08-19,07:15:00,DRY,3.45,17.00,47.5,775.00,123.2
2020-08-19,07:20:00,DRY,3.37,17.20,48.0,775.00,143.8
2020-08-19,07:25:00,DRY,3.35,17.40,47.5,775.00,164.1
2020-08-19,07:30:00,DRY,3.30,17.73,46.3,775.00,184.8
2020-08-19,07:35:00,DRY,3.90,17.75,46.0,775.00,205.1
2020-08-19,07:40:00,DRY,3.83,17.93,46.0,775.00,227.3
2020-08-19,07:45:00,DRY,3.55,18.10,46.0,775.00,250.0
2020-08-19,07:50:00,DRY,3.20,18.17,46.0,775.00,274.0
2020-08-19,07:55:00,DRY,3.30,18.15,46.0,775.00,296.4
2020-08-19,08:00:00,DRY,3.30,18.33,45.3,775.00,318.1
2020-08-19,08:05:00,DRY,4.00,18.35,45.5,775.00,340.1
2020-08-19,08:10:00,DRY,4.30,18.40,45.3,775.00,362.9
2020-08-19,08:15:00,DRY,4.75,18.40,45.0,775.00,384.9
2020-08-19,08:20:00,DRY,3.43,18.43,45.3,775.00,408.3
2020-08-19,08:25:00,DRY,3.90,18.65,44.5,775.00,429.8
2020-08-19,08:30:00,DRY,3.60,18.50,43.0,775.00,452.5
2020-08-19,08:35:00,DRY,3.55,18.70,44.0,775.00,476.1
2020-08-19,08:40:00,DRY,3.27,18.67,41.7,775.00,498.8
2020-08-19,08:45:00,DRY,3.10,18.75,43.0,775.00,521.7
2020-08-19,08:50:00,DRY,3.73,18.93,41.3,775.00,543.5
2020-08-19,08:55:00,DRY,3.15,18.90,39.5,775.00,565.5
2020-08-19,09:00:00,DRY,3.50,18.95,40.5,775.00,583.1
2020-08-19,09:05:00,DRY,2.90,19.30,39.0,775.00,609.0
2020-08-19,09:10:00,DRY,3.60,19.57,38.0,775.00,630.5
2020-08-19,09:15:00,DRY,4.05,19.55,39.0,775.00,652.1
2020-08-19,09:20:00,DRY,3.43,19.60,39.0,775.00,672.6
2020-08-19,09:25:00,DRY,4.75,19.55,38.5,775.00,693.2
2020-08-19,09:30:00,DRY,2.63,19.53,39.3,775.00,714.0
2020-08-19,09:35:00,DRY,3.95,19.90,38.0,775.00,733.6
2020-08-19,09:40:00,DRY,3.00,19.87,38.0,775.00,752.9
2020-08-19,09:45:00,DRY,2.75,19.70,37.0,775.00,772.8
2020-08-19,09:50:00,DRY,3.23,20.10,36.7,775.00,790.7
2020-08-19,09:55:00,DRY,3.05,20.25,35.5,775.50,808.8
2020-08-19,10:00:00,DRY,2.47,20.17,35.7,775.00,826.8
2020-08-19,10:05:00,DRY,2.15,20.10,36.0,775.00,844.0
2020-08-19,10:10:00,DRY,1.83,20.37,32.7,775.00,860.7
2020-08-19,10:15:00,DRY,2.15,20.35,33.0,775.00,876.9
2020-08-19,10:20:00,DRY,1.23,20.97,32.3,775.00,891.2
2020-08-19,10:25:00,DRY,1.45,21.20,31.0,775.00,905.9
2020-08-19,10:30:00,DRY,1.43,20.87,29.7,775.00,923.0
2020-08-19,10:35:00,DRY,2.15,21.30,28.5,775.00,939.5
2020-08-19,10:40:00,DRY,2.27,21.43,29.7,775.00,952.9
2020-08-19,10:45:00,DRY,1.35,21.70,28.5,775.00,965.5
2020-08-19,10:50:00,DRY,2.43,21.77,29.7,775.00,977.7
2020-08-19,10:55:00,DRY,2.40,20.80,30.5,775.00,994.3
2020-08-19,11:00:00,DRY,2.03,21.80,29.0,775.00,1005.5
2020-08-19,11:05:00,DRY,1.90,22.00,29.5,775.00,1016.0
2020-08-19,11:10:00,DRY,2.17,21.77,27.7,775.00,1030.6
2020-08-19,11:15:00,DRY,2.60,21.50,29.5,775.00,1038.2
2020-08-19,11:20:00,DRY,2.57,21.07,31.0,775.00,1050.1
2020-08-19,11:25:00,DRY,2.25,21.35,31.0,775.00,1061.7
2020-08-19,11:30:00,DRY,2.80,21.33,29.7,775.00,1073.3
2020-08-19,11:35:00,DRY,2.85,21.85,31.0,775.00,1077.7
2020-08-19,11:40:00,DRY,2.90,21.33,33.0,775.00,1090.5
2020-08-19,11:45:00,DRY,2.50,21.75,32.5,775.00,1099.0
2020-08-19,11:50:00,DRY,2.43,21.70,29.3,775.00,1108.8
2020-08-19,11:55:00,DRY,3.35,21.50,31.0,775.00,1112.6
2020-08-19,12:00:00,DRY,2.07,21.27,34.7,775.00,1120.3
2020-08-19,12:05:00,DRY,2.70,21.30,34.5,775.50,1126.9
2020-08-19,12:10:00,DRY,2.40,21.70,36.0,775.33,1132.3
2020-08-19,12:15:00,DRY,1.90,21.25,36.0,775.00,1136.0
2020-08-19,12:20:00,DRY,2.63,21.17,39.3,775.00,1140.3
2020-08-19,12:25:00,DRY,2.50,21.60,31.0,775.00,1146.9
2020-08-19,12:30:00,DRY,3.33,21.00,41.0,775.00,1149.2
2020-08-19,12:35:00,DRY,2.70,21.75,40.0,775.00,1155.2
2020-08-19,12:40:00,DRY,2.57,21.43,38.3,775.00,1155.3
2020-08-19,12:45:00,DRY,2.10,20.70,40.0,775.00,1160.3
2020-08-19,12:50:00,DRY,2.27,21.10,41.0,775.00,1161.6
2020-08-19,12:55:00,DRY,3.65,20.95,43.5,775.00,1161.3
2020-08-19,13:00:00,DRY,2.43,20.83,39.7,775.00,1168.0
2020-08-19,13:05:00,DRY,3.35,21.60,36.5,775.00,1166.9
2020-08-19,13:10:00,DRY,2.87,21.77,33.7,775.00,1167.7
2020-08-19,13:15:00,DRY,3.05,21.90,39.5,775.00,1166.4
2020-08-19,13:20:00,DRY,2.97,21.07,41.0,775.00,1164.5
2020-08-19,13:25:00,DRY,2.70,20.65,43.0,775.00,1165.8
2020-08-19,13:30:00,DRY,2.10,20.80,30.0,775.00,1164.5
2020-08-19,13:35:00,DRY,1.40,22.30,24.0,775.00,1159.6
2020-08-19,13:40:00,DRY,2.90,22.60,25.3,775.00,1161.3
2020-08-19,13:45:00,DRY,2.45,22.05,33.0,775.00,1160.8
2020-08-19,13:50:00,DRY,3.10,22.57,32.0,775.00,1155.0
2020-08-19,13:55:00,DRY,1.25,21.70,25.5,775.00,1149.5
2020-08-19,14:00:00,DRY,3.27,22.03,31.7,775.00,1147.3
2020-08-19,14:05:00,DRY,1.85,22.55,29.0,775.00,1141.3
2020-08-19,14:10:00,DRY,3.10,22.53,40.0,775.00,1139.2
2020-08-19,14:15:00,DRY,2.85,22.20,42.0,775.00,1129.4